Date,TemperatureHighF,TemperatureAvgF,TemperatureLowF,DewpointHighF,DewpointAvgF,DewpointLowF,HumidityHigh,HumidityAvg,HumidityLow,PressureMaxIn,PressureMinIn,WindSpeedMaxMPH,WindSpeedAvgMPH,GustSpeedMaxMPH,PrecipitationSumIn
2013-1-30,50,46,44,41,38,35,83,75,67,29.78,29.57,19,5,22,0.41
2013-1-31,51,46,42,42,38,36,82,74,66,29.72,29.49,16,7,36,0.47
2013-2-1,45,42,36,41,36,30,87,78,71,29.87,29.39,17,6,25,0.01
2013-2-2,44,38,34,35,32,30,88,77,61,30.25,29.88,9,1,10,0.00
2013-2-3,52,48,42,48,45,36,93,87,76,30.14,29.80,16,5,22,0.09
2013-2-4,50,44,34,48,37,31,92,78,66,29.89,29.65,17,7,28,0.23
2013-2-5,45,39,33,39,33,29,89,81,74,29.72,29.40,22,6,24,0.07
2013-2-6,45,40,35,35,32,30,84,73,57,30.25,29.73,14,3,19,0.00
2013-2-7,45,38,34,42,35,30,92,88,82,30.25,29.88,9,2,19,0.20
2013-2-8,46,42,39,43,39,35,91,86,83,30.26,30.16,6,2,9,0.00
2013-2-9,50,45,42,45,42,39,92,88,79,30.18,29.66,7,1,10,0.11
2013-2-10,46,43,41,44,42,39,95,93,91,29.66,29.18,8,2,12,0.91
2013-2-11,41,39,39,40,37,36,95,92,88,29.80,29.23,6,1,12,0.14
2013-2-12,42,40,39,39,37,37,93,90,86,29.97,29.80,12,3,13,0.13
2013-2-13,55,48,42,50,45,39,92,88,81,29.95,29.63,11,3,16,0.31
2013-2-14,50,46,42,46,41,38,90,83,70,30.01,29.66,8,3,16,0.00
2013-2-15,51,44,39,41,38,36,92,80,60,30.10,30.02,5,1,9,0.00
2013-2-16,55,47,40,48,43,37,94,85,73,30.07,30.02,9,1,14,0.01
2013-2-17,46,46,45,43,42,42,88,87,85,30.02,29.97,10,5,14,0.00
2013-2-18,46,44,42,39,37,35,86,76,69,30.06,29.98,10,4,16,0.00
2013-2-19,46,41,32,39,36,30,94,83,77,30.07,30.02,6,2,10,0.00
2013-2-20,45,42,40,39,34,-100,81,75,74,30.13,30.06,12,-11,24,0.00
2013-2-21,40,38,36,33,29,26,75,71,66,30.17,30.12,14,6,21,0.01
2013-2-22,38,36,35,29,26,24,71,66,60,30.22,30.13,10,3,13,0.00
2013-2-23,37,36,34,32,28,24,86,74,60,30.31,30.22,6,1,10,0.01
2013-2-24,37,34,31,33,31,28,90,85,79,30.32,30.30,4,0,8,0.04
2013-2-25,46,42,36,35,34,32,88,74,62,30.55,30.50,4,1,9,0.00
2013-2-26,44,41,35,38,36,32,89,83,73,30.63,30.51,5,0,10,0.00
2013-2-27,45,42,39,39,37,35,86,82,75,30.65,30.58,4,1,9,0.00
2013-2-28,45,40,36,40,37,34,95,87,81,30.58,30.46,4,0,7,0.00
2013-3-1,48,43,37,42,38,32,94,83,67,30.49,30.45,7,0,9,0.00
2013-3-2,46,40,30,37,34,29,93,80,66,30.45,30.26,4,0,7,0.00
2013-3-3,43,42,41,37,37,36,84,81,78,30.26,30.19,0,0,1,0.00
2013-3-4,44,41,36,35,34,33,89,77,67,29.88,29.70,8,2,13,0.00
2013-3-5,49,40,30,41,36,28,94,87,72,29.69,29.54,5,1,11,0.00
2013-3-6,48,45,43,45,43,40,94,92,89,29.53,29.43,4,1,6,0.11
2013-3-7,47,46,45,45,44,43,95,94,91,29.43,29.26,8,2,13,0.35
2013-3-8,48,46,45,47,45,43,96,95,94,29.47,29.24,11,4,17,0.42
2013-3-9,46,44,41,45,42,38,95,94,89,29.68,29.46,7,2,11,0.17
2013-3-10,41,39,35,37,30,18,88,71,49,29.91,29.68,14,5,24,0.02
2013-3-11,37,34,30,26,20,17,83,57,48,30.05,29.92,18,5,20,0.06
2013-3-12,41,37,31,32,25,17,82,64,51,30.07,29.96,9,3,16,0.00
2013-3-13,46,38,32,37,32,29,90,81,60,30.05,29.93,9,2,15,0.02
2013-3-14,48,40,30,41,35,27,89,81,70,30.05,29.69,10,3,17,0.03
2013-3-15,49,44,37,39,36,33,85,75,56,29.68,29.32,12,3,22,0.01
2013-3-16,45,38,32,38,34,30,92,83,68,29.32,29.24,4,1,11,0.05
2013-3-17,36,35,35,32,32,32,87,87,86,29.27,29.25,4,1,7,0.00
2013-3-19,40,37,35,37,35,33,93,90,84,29.49,29.42,6,1,8,0.20
2013-3-20,44,39,35,39,36,33,94,89,79,29.86,29.50,7,2,14,0.05
2013-3-21,43,41,40,38,36,34,92,82,75,29.86,29.57,18,9,27,0.66
2013-3-22,42,41,40,39,39,38,92,91,90,29.58,29.50,20,11,29,2.17
2013-4-8,48,44,42,36,31,-100,73,65,61,29.64,0.00,9,-20,19,0.00
2013-4-9,46,41,38,38,35,33,84,78,72,29.59,29.45,14,3,17,0.00
2013-4-10,46,44,41,44,40,37,91,88,84,29.59,29.44,9,2,12,0.03
2013-4-11,47,45,43,45,42,40,94,92,88,29.43,29.23,10,2,13,0.38
2013-4-12,54,46,42,43,42,40,94,85,65,29.65,29.25,6,2,12,0.03
2013-4-13,57,46,40,53,44,38,96,92,82,29.66,29.37,12,3,19,0.06
2013-4-14,58,55,50,52,49,45,86,82,78,29.45,29.38,13,4,17,0.13
2013-4-15,62,56,50,47,44,40,88,66,46,29.78,29.48,12,5,23,0.05
2013-4-16,59,54,49,45,37,30,79,56,35,29.88,29.46,22,7,32,0.31
2013-4-17,61,54,47,52,46,34,92,74,54,29.86,29.19,23,7,42,0.84
2013-4-18,54,48,44,43,42,40,89,78,60,30.07,29.23,24,7,40,2.08
2013-4-19,54,47,40,42,39,36,89,75,52,30.43,30.08,6,2,12,0.06
2013-4-20,59,50,38,42,39,36,90,69,44,30.44,30.19,13,2,20,0.00
2013-4-21,49,49,48,42,40,39,80,73,70,30.18,30.02,12,3,16,0.00
2013-4-22,62,56,50,52,47,44,83,74,62,29.92,29.78,16,6,27,0.01
2013-4-23,64,56,48,50,46,43,88,73,56,30.09,29.92,9,3,17,0.00
2013-4-24,60,54,46,52,49,43,93,83,72,30.22,30.00,12,3,21,0.12
2013-4-25,56,48,45,45,42,37,95,80,55,30.20,30.07,7,1,13,0.47
2013-4-26,51,45,38,38,35,30,87,68,45,30.14,30.01,12,4,21,0.00
2013-4-27,52,46,39,39,36,34,82,68,55,30.16,30.05,7,2,12,0.00
2013-4-28,48,46,45,40,37,35,84,70,62,30.09,29.93,10,3,18,0.00
2013-4-29,57,52,45,42,37,32,74,59,43,30.22,29.95,14,5,19,0.01
2013-4-30,53,47,38,39,37,34,88,69,51,30.33,30.22,7,2,11,0.00
2013-5-1,60,51,44,46,41,36,83,68,42,30.27,30.21,6,2,12,0.00
2013-5-2,62,53,41,47,42,38,91,68,48,30.27,30.10,11,2,13,0.00
2013-5-3,60,55,50,49,46,44,90,71,59,30.10,29.83,19,5,24,0.07
2013-5-4,61,53,47,51,43,39,88,70,48,29.97,29.79,11,5,23,0.09
2013-5-5,56,55,55,51,50,49,84,82,80,29.98,29.97,9,4,19,0.00
2013-5-10,59,52,47,50,42,33,93,72,40,29.70,29.56,13,4,21,0.09
2013-5-11,54,49,45,45,41,37,90,76,57,29.93,29.65,16,4,24,0.20
2013-5-12,45,44,44,39,38,38,82,80,76,29.94,29.93,6,2,11,0.00
2013-5-13,49,48,48,38,38,38,70,68,66,29.79,29.77,10,6,20,0.00
2013-6-5,65,59,56,51,43,-100,82,62,55,30.15,0.00,6,-40,12,0.00
2013-6-6,64,58,51,53,51,48,91,76,62,30.22,30.12,7,1,11,0.00
2013-6-7,69,61,52,54,50,46,90,69,51,30.26,30.22,6,1,11,0.00
2013-6-8,69,61,53,55,51,47,84,70,53,30.25,30.08,6,1,9,0.00
2013-6-9,58,54,52,51,49,47,86,83,74,30.08,30.01,3,0,8,0.00
2013-6-10,66,59,52,52,49,46,83,69,52,29.91,29.79,11,3,17,0.00
2013-6-11,66,57,52,60,53,49,94,88,79,29.79,29.61,9,4,18,0.25
2013-6-12,63,56,54,54,52,49,95,85,63,29.68,29.51,6,2,10,0.13
2013-6-13,63,56,50,53,49,43,95,79,52,29.87,29.51,11,2,22,0.10
2013-6-14,62,55,50,51,46,-100,92,76,56,29.87,29.37,14,-8,30,0.24
2013-6-15,66,56,48,52,46,42,86,71,45,29.70,29.47,14,6,21,0.24
2013-6-16,54,53,52,50,49,48,90,86,82,29.75,29.70,15,3,16,0.02
2013-6-17,62,59,53,55,53,51,93,81,71,30.00,29.97,6,1,9,0.09
2013-6-18,68,60,50,56,52,48,92,77,61,29.98,29.92,7,1,10,0.09
2013-6-19,69,60,54,53,49,46,82,67,47,30.04,29.97,8,2,11,0.00
2013-6-20,62,57,54,53,48,-100,84,77,62,30.00,29.83,10,-17,14,0.00
2013-6-21,68,61,57,55,49,-100,81,68,50,29.82,0.00,8,-14,14,0.02
2013-6-22,63,58,54,54,51,48,88,77,66,29.56,29.38,16,5,24,0.21
2013-6-23,56,56,56,52,51,51,85,84,83,29.59,29.56,11,4,15,0.00
2013-6-24,64,59,54,49,44,-100,80,62,50,30.26,30.20,5,-16,10,0.00
2013-6-25,61,56,51,52,49,47,86,79,69,30.33,30.26,2,0,3,0.00
2013-11-29,48,46,43,42,40,40,88,82,76,30.41,30.33,5,3,17,0.00
2013-11-30,48,44,40,43,41,37,91,88,83,30.50,30.39,6,1,10,0.00
2013-12-1,46,46,45,44,44,43,94,92,89,30.51,30.49,2,1,6,0.00
2013-12-2,50,48,44,43,42,40,87,80,74,30.50,30.39,3,0,6,0.00
2013-12-3,51,47,39,46,42,37,91,83,77,30.39,30.21,11,2,18,0.00
2013-12-4,45,42,37,42,37,34,92,85,76,30.47,30.28,9,2,18,0.00
2013-12-5,51,45,40,46,39,36,86,78,69,30.37,30.00,22,6,30,0.50
2013-12-6,50,44,38,45,41,35,94,89,82,30.36,30.29,6,2,13,0.00
2013-12-7,49,47,46,44,43,42,89,84,81,30.30,30.11,11,4,14,0.00
2013-12-8,50,49,47,45,44,43,86,85,84,30.12,30.07,14,4,21,0.00
2013-12-9,55,52,49,46,44,41,83,74,68,30.20,30.14,8,2,14,0.00
2013-12-10,57,55,51,51,47,43,87,76,63,30.18,30.11,9,3,17,0.00
2013-12-11,56,53,50,50,46,44,85,79,70,30.20,29.97,12,3,21,0.00
2013-12-12,62,58,54,56,53,48,92,83,77,29.97,29.84,9,3,19,0.00
2013-12-13,58,52,42,53,45,35,91,77,62,30.02,29.70,16,5,25,0.01
2013-12-14,56,51,42,50,44,35,87,78,67,30.02,29.50,31,6,35,1.02
2013-12-15,48,45,44,41,38,36,80,76,70,29.91,29.80,18,5,23,0.00
2013-12-16,45,44,42,39,37,35,84,76,70,30.05,29.76,8,3,22,0.45
2013-12-17,49,44,36,41,36,31,86,74,65,30.11,29.68,10,2,19,0.01
2013-12-18,54,50,41,51,44,35,91,80,70,29.67,28.77,22,5,37,0.83
2013-12-19,41,39,37,35,34,32,86,81,75,29.68,29.11,21,6,28,0.06
2013-12-20,54,48,39,50,42,34,87,80,73,29.86,29.47,23,7,30,0.83
2013-12-21,51,46,41,44,40,35,91,78,68,29.60,29.34,15,6,29,0.41
2013-12-22,43,42,40,37,36,33,80,78,74,29.50,29.44,13,6,24,0.00